Regional Weather Roundup
Issued by NWS

Home | Current Version | Previous Version | Graphics & Text | Print | Product List | Glossary On
Versions: 1 2 3 4 5 6 7 8 9 10 11 12 13 14 15 16 17 18 19 20 21 22 23 24 25 26 27 28 29 30 31 32 33 34 35 36 37 38 39 40 41 42 43 44 45 46 47 48 49 50
599
ASUS43 KDTX 182301
RWRMI
MICHIGAN HOURLY REGIONAL WEATHER ROUNDUP
NATIONAL WEATHER SERVICE DETROIT/PONTIAC MI
600 PM EST WED JAN 18 2017

NOTE: "FAIR" INDICATES FEW OR NO CLOUDS BELOW 12,000 FEET WITH NO
SIGNIFICANT WEATHER AND/OR OBSTRUCTION TO VISIBILITY.

MIZ047>049-052>055-059>063-066>070-074>076-081>083-190000-
SOUTHEAST LOWER MICHIGAN

CITY           SKY/WX    TMP DP  RH WIND       PRES   REMARKS
ADRIAN         CLOUDY    35  34  96 W8        30.10R WCI  29
ALMA           CLOUDY    36  34  94 SW15G22   30.01S WCI  26
ANN ARBOR      CLOUDY    37  35  92 SW9       30.05F WCI  30
BAD AXE        CLOUDY    35  35 100 SW10      29.98R WCI  27
CARO           CLOUDY    36  35  96 SW10      30.00R WCI  29
DETROIT CITY   CLOUDY    39  36  87 W7        30.05S WCI  34
DETROIT        CLOUDY    40  35  83 SW14      30.07S WCI  32
FLINT          CLOUDY    37  35  92 SW9       30.02F WCI  30
GROSSE ILE     CLOUDY    38  35  87 W9        30.06S WCI  32
HILLSDALE      FOG       32  32 100 W5        30.07R VSB 1   WCI  27
HOWELL         CLOUDY    37  34  90 SW9       30.02F WCI  30

CITY           SKY/WX    TMP DP  RH WIND       PRES   REMARKS
JACKSON        CLOUDY    35  33  92 SW9       30.05S FOG     WCI  28
LAMBERTVILLE   CLOUDY    38  35  87 W9        30.10R WCI  32
LANSING        CLOUDY    37  33  85 SW14      30.03F WCI  28
LAPEER         CLOUDY    37  35  94 SW7       30.01S WCI  31
MASON          CLOUDY    35  34  96 SW7       30.04F FOG     WCI  29
MONROE         CLOUDY    37  36  95 W10       30.07S WCI  30
MT. CLEMENS    CLOUDY    40  37  89 S12       30.01F WCI  33
PONTIAC        CLOUDY    37  34  89 SW10      30.01F WCI  30
PORT HOPE        N/A     36  34  92 SW15G24   29.94F WCI  27
PORT HURON     CLOUDY    37  36  93 SW3       30.03S
TRI CITIES     CLOUDY    37  36  96 SW14      30.00S WCI  28
MIDLAND        CLOUDY    37  34  88 SW8G16    29.98S WCI  31
TROY           CLOUDY    40  35  84 SW12      30.04F WCI  32
SAGINAW HB     CLOUDY    37  34  87 SW16      30.00R WCI  28
$$
MIZ043>046-050>051-056>058-064>065-071>073-077>080-190000-
SOUTHWEST LOWER MICHIGAN

CITY           SKY/WX    TMP DP  RH WIND       PRES   REMARKS
BATTLE CREEK   CLOUDY    35  34  96 SW10      30.06F FOG     WCI  27
BENTON HARBOR  CLOUDY    35  32  88 SW7       30.09S WCI  29
BIG RAPIDS     CLOUDY    34  33  95 SW10G21   29.98S FOG     WCI  26
COLDWATER      CLOUDY    34  34 100 W12       30.09R FOG     WCI  26
FREMONT        CLOUDY    35  34  99 SW12G21   30.01S WCI  26
HOLLAND        CLOUDY    35  33  92 SW17      30.05F WCI  25
GRAND RAPIDS   CLOUDY    35  32  88 SW20      30.04F FOG     WCI  24
IONIA          CLOUDY    34  34  98 SW14      30.02F FOG     WCI  25
KALAMAZOO      CLOUDY    35  32  88 SW13      30.08S FOG     WCI  26
LUDINGTON      CLOUDY    34  33  96 S15       29.98F WCI  24
MARSHALL       CLOUDY    35  34  98 SW12      30.05F FOG     WCI  26
MOUNT PLEASANT CLOUDY    36  34  94 SW10      29.99S WCI  28
MUSKEGON       CLOUDY    36  33  89 SW14      30.04S WCI  27
SOUTH HAVEN    CLOUDY    34  33  97 SW8       30.06F FOG     WCI  27
$$
MIZ016>042-190000-
NORTHERN LOWER MICHIGAN

CITY           SKY/WX    TMP DP  RH WIND       PRES   REMARKS
ALPENA         CLEAR     39  33  79 S10       29.87F WCI  32
BEAVER ISLAND  CLOUDY    35  34  94 SW20G26   29.89R WCI  24
BELLAIRE       PTCLDY    36  33  87 SW7       29.91R WCI  30
CADILLAC       CLOUDY    33  32  96 SW18G25   29.93R WCI  22
CHARLEVOIX     PTCLDY    36  34  94 SW7       29.93R WCI  30
FRANKFORT      CLOUDY    35  34  95 S14G24    29.94F WCI  26
GAYLORD        CLEAR     38  30  73 SW10      29.86R WCI  31
GRAYLING       CLEAR     36  33  89 SW8       29.91R WCI  30
HARBOR SPRINGS CLEAR     35  33  90 W7        29.89R WCI  29
HOUGHTON LAKE  CLOUDY    35  32  88 SW10      29.92F WCI  27
MANISTEE       CLOUDY    35  32  88 S13G18    29.97S WCI  26
OSCODA         CLOUDY    37  34  90 SW12      29.92S WCI  29
PELLSTON       MOCLDY    37  31  78 W7        29.89R WCI  32
ROGERS CITY    CLEAR     38  32  80 NW3       29.88R
TRAVERSE CITY  CLOUDY    37  32  82 SW9G21    29.91R WCI  30
$$
MIZ007>008-015-190000-
EASTERN UPPER MICHIGAN

CITY           SKY/WX    TMP DP  RH WIND       PRES   REMARKS
KINROSS        CLOUDY    34  32  92 W10       29.87R WCI  26
MACKINAC ISLAN CLOUDY    34  34 100 W16G26    29.86S WCI  23
NEWBERRY       CLOUDY    32  32  99 SW13      29.85R WCI  22
S. S. MARIE    CLOUDY    35  31  85 SW12      29.85R WCI  27
MUNISING         N/A     38  32  79 S13       29.81R WCI  30
$$
MIZ004>006-011>014-085-190000-
CENTRAL UPPER MICHIGAN

CITY           SKY/WX    TMP DP  RH WIND       PRES   REMARKS
MANISTIQUE     PTCLDY    32  32  99 SW9       29.86R FOG     WCI  24
ESCANABA       CLEAR     33  31  92 S9        29.86R WCI  25
SAWYER-GWINN   CLEAR     39  30  70 S9        29.80R WCI  33
$$
MIZ001>003-009>011-084-190000-
WESTERN UPPER MICHIGAN

CITY           SKY/WX    TMP DP  RH WIND       PRES   REMARKS
IRON MOUNTAIN  CLEAR     42  28  57 SW6       29.80S
HOUGHTON       CLEAR     35  27  72 W9        29.77R WCI  28
COPPER HARBOR    N/A     35  28  75 VRB3      29.78S
IRONWOOD       CLOUDY    43  27  53 SW8       29.80S
$$

ABBREVIATIONS USED IN REMARKS
   TC - TEMPERATURE IN CELSIUS
  WCI - WIND CHILL INDEX
   HX - HEAT INDEX
  VSB - VISIBILITY





USA.gov is the U.S. government's official web portal to all federal, state and local government web resources and services.